Location: Unspecified
(0.0000°N, 0.0000°E)
Time: 10:14:20
(UTC+00:00)

A-11 Canister half - Pass Details

Date: 16 June 2024
Orbit: 1515 x 1684 km, 47.2° (Epoch: 23 July)

Event Time Altitude Azimuth Distance (km) Brightness Sun altitude
Rises 04:07:22 0° 322° (NW) 4,680 11.4 -25.8°
Reaches altitude 10° 04:10:25 10° 323° (NW) 3,686 10.9 -25.2°
Maximum altitude 04:19:42 85° 50° (NE) 1,521 8.9 -23.1°
Drops below altitude 10° 04:28:58 10° 138° (SE) 3,685 11.2 -21.0°
Sets 04:32:01 0° 139° (SE) 4,679 11.8 -20.3°
